Location: Kergonan
(48.2337°N, 4.5518°W)
Time: 15:58:27
(UTC+00:00)

Meteor 1-11 - Pass Details

Date: 18 January 2020
Orbit: 840 x 887 km, 81.2° (Epoch: 18 February)

Event Time Altitude Azimuth Distance (km) Brightness Sun altitude
Rises 06:44:47 0° 348° (NNW) 3,408 7.1 -12.6°
Reaches altitude 10° 06:47:12 10° 348° (NNW) 2,470 6.3 -12.2°
Maximum altitude 06:52:49 90° 250° (WSW) 851 4.2 -11.3°
Drops below altitude 10° 06:58:25 10° 171° (S) 2,469 7.0 -10.5°
Sets 07:00:50 0° 171° (S) 3,406 7.8 -10.1°
